Regional Weather Roundup
Issued by NWS

Home | Current Version | Previous Version | Text Only | Print | Product List | Glossary Off
Versions: 1 2 3 4 5 6 7 8 9 10 11 12 13 14 15 16 17 18 19 20 21 22 23 24 25 26 27 28 29 30 31 32 33 34 35 36 37 38 39 40 41 42 43 44 45 46 47 48 49 50

533
ASUS43 KDMX 200401
RWRIA

WEATHER ROUNDUP FOR IOWA
NATIONAL WEATHER SERVICE DES MOINES IA
1100 PM CDT TUE SEP 19 2017

NOTE: "FAIR" INDICATES FEW OR NO CLOUDS BELOW 12,000 FEET WITH NO
SIGNIFICANT WEATHER AND/OR OBSTRUCTIONS TO VISIBILITY.

* - THESE STATIONS ARE NOT NWS STATIONS...THUS NOT UNDER NWS
QUALITY CONTROL.  THEY ALSO DO NOT REPORT WEATHER SUCH
AS PRECIPITATION OR FOG.

IAZ001>003-012>014-020>022-031>034-043>046-200500-
   NORTHWEST IOWA

CITY           SKY/WX    TMP DP  RH WIND       PRES   REMARKS
CARROLL *      PTCLDY    75  68  78 SE14      29.66F
CHEROKEE *     CLOUDY    74  68  80 S21G28    29.57F
DENISON *      PTCLDY    75  68  78 S20G31    29.63F
LE MARS *      CLOUDY    77  70  78 MISG      29.51S
ORANGE CITY *  CLOUDY    77  72  83 S21G30    29.52F
SHELDON *      CLOUDY    75  66  73 S17G35    29.51S
SIOUX CITY     CLOUDY    78  70  76 S22G36    29.51F HX  80
SPENCER        CLOUDY    74  67  78 SE28G37   29.56F
STORM LAKE *   MOCLDY    73  66  78 SE22G29   29.60F
$$

IAZ055>058-069>071-079>083-090>094-200500-
   SOUTHWEST IOWA

CITY           SKY/WX    TMP DP  RH WIND       PRES   REMARKS
ATLANTIC *     PTCLDY    79  70  73 S17G28    29.66F HX  81
AUDUBON *      PTCLDY    75  70  83 S13G18    29.68S
CLARINDA *     CLEAR     79  70  73 S12G18    29.70S HX  81
COUNCIL BLFS * CLOUDY    77  72  83 S23G32    29.62S
CRESTON *      MOCLDY    75 -35   1 S15G23    29.74R
HARLAN  *      PTCLDY    77  70  78 S15       29.68S
LAMONI         CLEAR     76  68  76 S9G18     29.74S
RED OAK *      CLOUDY    77  70  78 S16       29.66S
SHENANDOAH *   CLOUDY    79  70  73 SE17G24   29.66R HX  81
$$

IAZ047>049-059>061-072>074-084-200500-
   CENTRAL IOWA

CITY           SKY/WX    TMP DP  RH WIND       PRES   REMARKS
AMES           CLEAR     73  68  84 SE13      29.72F
ANKENY *       CLEAR     75  66  73 SE12      29.73S
BOONE *        CLOUDY    73  66  78 SE12      29.71S
CHARITON *       N/A     73  68  83 SE12      29.75S
DES MOINES     CLEAR     75  67  76 SE13      29.72S
GRINNELL*      CLEAR     71  65  80 SE13      29.78S
KNOXVILLE *    CLEAR     75  64  69 SE9       29.74S
MARSHALLTOWN   CLEAR     71  66  84 SE14      29.75S
NEWTON *       CLEAR     72  66  83 SE12      29.76S
PELLA *        CLEAR     74  65  73 SE10      29.77S
PERRY *          N/A     74  69  83 SE10G18   29.70F
$$

IAZ004>006-015-016-023>025-035-036-200500-
   NORTH CENTRAL IOWA

CITY           SKY/WX    TMP DP  RH WIND       PRES   REMARKS
ALGONA *       CLEAR     73  68  83 SE21G29   29.64F
CLARION *      CLOUDY    72  68  88 SE17G26   29.69F
ESTHERVILLE    CLOUDY    71  67  87 S21G31    29.58F
FORT DODGE *   CLOUDY    75  67  76 SE15G24   29.67F
MASON CITY     CLOUDY    71  63  75 SE16G28   29.72F
FOREST CITY *    N/A     70  63  78 SE18G26   29.69F
IOWA FALLS *     N/A     73  65  78 SE17G24   29.75S
$$

IAZ007>011-017>019-026>030-037>042-050>054-066-200500-
   NORTHEAST IOWA

CITY           SKY/WX    TMP DP  RH WIND       PRES   REMARKS
CEDAR RAPIDS   CLEAR     71  65  81 SE14      29.81S
CHARLES CITY * CLEAR     70  66  88 SE15G25   29.76F
CLINTON *      CLEAR     68  65  90 SE7       29.88S
DECORAH *      MOCLDY    66  63  88 SE10G17   29.80F
DUBUQUE        CLEAR     67  63  87 S12       29.87S
MONTICELLO *   CLEAR     68  64  88 SE9       29.84S
OELWEIN *      CLEAR     68  66  94 SE14G22   29.81F
WATERLOO       CLEAR     70  63  78 SE15G23   29.77S
$$

IAZ064-065-067-068-078-200500-
   EAST CENTRAL IOWA

CITY           SKY/WX    TMP DP  RH WIND       PRES   REMARKS
DAVENPORT      CLEAR     68  64  87 SE7       29.88S
IOWA CITY      CLEAR     70  64  81 SE7       29.83F
MUSCATINE *    CLEAR     70  64  83 SE5       29.84S
QUAD CITIES    CLEAR     68  64  87 SE6       29.86S
$$

IAZ062-063-075>077-085>089-095>099-200500-
   SOUTHEAST IOWA

CITY           SKY/WX    TMP DP  RH WIND       PRES   REMARKS
BURLINGTON     CLEAR     72  67  84 SE9       29.84S
FAIRFIELD *    PTCLDY    72  64  78 SE12      29.80S
FORT MADISON * CLEAR     73  66  78 SE9       29.84F
KEOKUK *       CLEAR     72  66  83 SE8       29.82F
OSKALOOSA *      N/A     70  66  85 SE9       29.78F
OTTUMWA        CLEAR     74  66  76 SE13      29.78S
WASHINGTON *   CLEAR     72  68  88 SE10G16   29.83S
$$

ABBREVIATIONS USED IN REMARKS
   TC - TEMPERATURES IN CELSIUS
  WCI - WIND CHILL INDEX
   HX - HEAT INDEX
  VSB - VISIBILITY
$$





USA.gov is the U.S. government's official web portal to all federal, state and local government web resources and services.